This is the latest recevied weather packets stored in our database for station/object CQ0XVC-11. If no packets are shown the sender has not sent any weather packets the latest 10 day(s).
| Time | Temp. | Humidity | Pressure | Rain* | Wind** | Luminosity | Snow |
|---|---|---|---|---|---|---|---|
| 1777644161 | 21.67° C | 30% | 1004.7 hPa | 0 mm | - | - | - |
| 1777643859 | 21.11° C | 30% | 1004.8 hPa | 0 mm | - | - | - |
| 1777643556 | 21.11° C | 31% | 1004.9 hPa | 0 mm | - | - | - |
| 1777643255 | 21.11° C | 29% | 1004.9 hPa | 0 mm | - | - | - |
| 1777642952 | 21.11° C | 29% | 1005 hPa | 0 mm | - | - | - |
| 1777642650 | 21.11° C | 30% | 1005 hPa | 0 mm | - | - | - |
| 1777642380 | 20.56° C | 30% | 1005.1 hPa | 0 mm | - | - | - |
| 1777642348 | 20.56° C | 30% | 1005.1 hPa | 0 mm | - | - | - |
| 1777642046 | 20.56° C | 30% | 1005.1 hPa | 0 mm | - | - | - |
| 1777641743 | 21.11° C | 30% | 1004.9 hPa | 0 mm | - | - | - |
| 1777641442 | 21.11° C | 30% | 1005.1 hPa | 0 mm | - | - | - |
| 1777641139 | 20.56° C | 29% | 1005 hPa | 0 mm | - | - | - |
| 1777640837 | 21.11° C | 28% | 1005 hPa | 0 mm | - | - | - |
| 1777640535 | 21.11° C | 30% | 1005.1 hPa | 0 mm | - | - | - |
| 1777640233 | 21.11° C | 29% | 1005.2 hPa | 0 mm | - | - | - |
| 1777639930 | 21.11° C | 30% | 1005.2 hPa | 0 mm | - | - | - |
| 1777639629 | 21.11° C | 28% | 1005.1 hPa | 0 mm | - | - | - |
| 1777639326 | 21.11° C | 29% | 1005.1 hPa | 0 mm | - | - | - |
| 1777639074 | 21.11° C | 32% | 1005.3 hPa | 0 mm | - | - | - |
| 1777639024 | 21.11° C | 32% | 1005.3 hPa | 0 mm | - | - | - |
| 1777638722 | 20.56° C | 32% | 1005.2 hPa | 0 mm | - | - | - |
| 1777638420 | 20.56° C | 31% | 1005.3 hPa | 0 mm | - | - | - |
| 1777638117 | 20° C | 32% | 1005.4 hPa | 0 mm | - | - | - |
| 1777637816 | 20° C | 32% | 1005.6 hPa | 0 mm | - | - | - |
| 1777637513 | 20° C | 34% | 1005.6 hPa | 0 mm | - | - | - |
* Rain since midnight (hover to see other rain measurements)
** Current wind speed in m/s (hover to see current wind gust speed)